Powrót do katalogu

FENGYUN 1C DEB

AktywnySSO
NORAD 31254·DEBRIS·🇨🇳 China

Wystrzelony May 10, 1999 z Taiyuan Satellite Launch Center

Loading…

Następne Przeloty (najbliższe 24 godziny)

TLE

ŚwieżeSource: Space-Track

Epoka: Sep 14, 2026, 09:10 UTC

1 31254U 99025BML 26257.38233976  .00000856  00000-0  26643-3 0  9996
2 31254  98.4269 306.8952 0151193  99.7220 324.3364 14.37056588 13553

Śledź FENGYUN 1C DEB w czasie rzeczywistym z AllMySat

Download on the App Store